timestamp,wind_dir_avg,wind_spd_avg,wind_spd_max_dir,wind_spd_gust,battery_voltage,lat,long
2021-03-07 00:04:01+00:00,221.0,7.37,218.0,8.65,12.57,47.59359,-54.27349
2021-03-07 00:14:01+00:00,225.0,6.68,220.0,7.3,12.49,47.59359,-54.27349
2021-03-07 00:24:01+00:00,230.0,5.17,225.0,6.15,12.49,47.59359,-54.27349
2021-03-07 00:34:01+00:00,230.0,5.68,228.0,6.33,12.49,47.59359,-54.27349
2021-03-07 00:44:01+00:00,252.0,8.45,251.0,9.44,12.49,47.59359,-54.27349
2021-03-07 00:54:01+00:00,245.0,8.5,242.0,9.45,12.49,47.59359,-54.27349
2021-03-07 01:04:01+00:00,249.0,7.6,248.0,8.78,12.49,47.59359,-54.27349
2021-03-07 01:14:01+00:00,238.0,6.81,243.0,7.85,12.49,47.59359,-54.27349
2021-03-07 01:24:01+00:00,246.0,6.62,246.0,7.44,12.49,47.59359,-54.27349
2021-03-07 01:34:01+00:00,246.0,7.92,251.0,9.28,12.49,47.59359,-54.27349
2021-03-07 01:44:01+00:00,249.0,7.58,250.0,8.77,12.49,47.59359,-54.27349
2021-03-07 01:54:01+00:00,242.0,7.34,243.0,8.43,12.49,47.59359,-54.27349
2021-03-07 02:04:01+00:00,240.0,6.82,237.0,7.63,12.49,47.59359,-54.27349
2021-03-07 02:14:01+00:00,257.0,7.83,258.0,8.64,12.41,47.59359,-54.27349
2021-03-07 02:24:01+00:00,255.0,7.39,258.0,8.67,12.41,47.59359,-54.27349
2021-03-07 02:34:01+00:00,247.0,7.09,251.0,9.04,12.41,47.59359,-54.27349
2021-03-07 02:44:01+00:00,250.0,6.51,248.0,8.11,12.41,47.59359,-54.27349
2021-03-07 02:54:01+00:00,239.0,7.22,236.0,8.77,12.41,47.59359,-54.27349
2021-03-07 03:04:01+00:00,248.0,6.91,254.0,8.62,12.41,47.59359,-54.27349
2021-03-07 03:14:01+00:00,249.0,8.49,246.0,9.45,12.41,47.59359,-54.27349
2021-03-07 03:24:01+00:00,247.0,8.55,242.0,9.52,12.41,47.59359,-54.27349
2021-03-07 03:34:01+00:00,246.0,8.64,244.0,9.69,12.41,47.59359,-54.27349
2021-03-07 03:44:01+00:00,242.0,8.54,242.0,9.42,12.41,47.59359,-54.27349
2021-03-07 03:54:01+00:00,239.0,8.23,240.0,9.9,12.41,47.59359,-54.27349
2021-03-07 04:04:01+00:00,243.0,8.04,245.0,9.35,12.41,47.59359,-54.27349
2021-03-07 04:14:01+00:00,237.0,7.47,240.0,9.04,12.41,47.59359,-54.27349
2021-03-07 04:24:01+00:00,235.0,8.76,238.0,10.06,12.41,47.59359,-54.27349
2021-03-07 04:34:01+00:00,238.0,7.63,243.0,9.46,12.41,47.59359,-54.27349
2021-03-07 04:44:01+00:00,249.0,8.88,248.0,12.07,12.41,47.59359,-54.27349
2021-03-07 04:54:01+00:00,246.0,9.39,249.0,12.29,12.41,47.59359,-54.27349
2021-03-07 05:04:01+00:00,236.0,8.14,240.0,10.04,12.41,47.59359,-54.27349
2021-03-07 05:14:01+00:00,236.0,8.1,243.0,12.02,12.41,47.59359,-54.27349
2021-03-07 05:24:01+00:00,252.0,9.8,256.0,12.58,12.41,47.59359,-54.27349
2021-03-07 05:34:01+00:00,241.0,9.64,242.0,12.8,12.41,47.59359,-54.27349
2021-03-07 05:44:01+00:00,240.0,8.3,245.0,10.47,12.41,47.59359,-54.27349
2021-03-07 05:54:01+00:00,244.0,8.44,248.0,11.13,12.41,47.59359,-54.27349
2021-03-07 06:04:01+00:00,245.0,8.16,249.0,9.34,12.41,47.59359,-54.27349
2021-03-07 06:14:01+00:00,242.0,9.91,242.0,12.51,12.41,47.59359,-54.27349
2021-03-07 06:24:01+00:00,244.0,7.82,259.0,11.7,12.41,47.59359,-54.27349
2021-03-07 06:34:01+00:00,244.0,9.13,257.0,13.16,12.41,47.59359,-54.27349
2021-03-07 06:44:01+00:00,235.0,8.63,241.0,13.06,12.41,47.59359,-54.27349
2021-03-07 06:54:01+00:00,248.0,8.5,251.0,12.27,12.41,47.59359,-54.27349
2021-03-07 07:04:01+00:00,245.0,10.19,241.0,12.8,12.41,47.59359,-54.27349
2021-03-07 07:14:01+00:00,248.0,9.87,238.0,12.25,12.33,47.59359,-54.27349
2021-03-07 07:24:01+00:00,249.0,7.95,255.0,9.67,12.33,47.59359,-54.27349
2021-03-07 07:34:01+00:00,234.0,8.24,233.0,9.86,12.33,47.59359,-54.27349
2021-03-07 07:44:01+00:00,238.0,8.71,233.0,9.82,12.33,47.59359,-54.27349
2021-03-07 07:54:01+00:00,238.0,8.93,245.0,12.25,12.33,47.59359,-54.27349
2021-03-07 08:04:01+00:00,236.0,8.17,236.0,10.16,12.33,47.59359,-54.27349
2021-03-07 08:14:01+00:00,228.0,8.73,237.0,12.07,12.41,47.59359,-54.27349
2021-03-07 08:24:01+00:00,235.0,8.02,236.0,9.79,12.41,47.59359,-54.27349
2021-03-07 08:34:01+00:00,232.0,8.52,229.0,10.11,12.41,47.59359,-54.27349
2021-03-07 08:44:01+00:00,238.0,8.25,240.0,9.96,12.41,47.59359,-54.27349
2021-03-07 08:54:01+00:00,230.0,7.5,244.0,9.33,12.41,47.59359,-54.27349
2021-03-07 09:04:01+00:00,242.0,7.92,244.0,12.2,12.41,47.59359,-54.27349
2021-03-07 09:14:01+00:00,233.0,9.08,240.0,13.23,12.33,47.59359,-54.27349
2021-03-07 09:24:01+00:00,230.0,9.59,228.0,10.65,12.33,47.59359,-54.27349
2021-03-07 09:34:01+00:00,242.0,7.07,248.0,9.24,12.33,47.59359,-54.27349
2021-03-07 09:44:01+00:00,241.0,7.11,255.0,10.28,12.33,47.59359,-54.27349
2021-03-07 09:54:01+00:00,237.0,8.12,237.0,9.79,12.33,47.59359,-54.27349
2021-03-07 10:04:01+00:00,229.0,9.26,222.0,10.7,12.33,47.59359,-54.27349
2021-03-07 10:14:01+00:00,226.0,9.13,225.0,11.21,12.33,47.59359,-54.27349
2021-03-07 10:24:01+00:00,232.0,8.37,247.0,12.08,12.33,47.59359,-54.27349
2021-03-07 10:34:01+00:00,231.0,8.18,233.0,9.61,12.33,47.59359,-54.27349
2021-03-07 10:44:01+00:00,228.0,8.54,228.0,10.07,12.33,47.59359,-54.27349
2021-03-07 10:54:01+00:00,229.0,9.17,232.0,10.36,12.33,47.59359,-54.27349
2021-03-07 11:04:01+00:00,229.0,8.86,230.0,9.88,12.33,47.59359,-54.27349
2021-03-07 11:14:01+00:00,230.0,7.51,225.0,9.63,12.41,47.59359,-54.27349
2021-03-07 11:24:01+00:00,230.0,8.48,226.0,9.67,12.41,47.59359,-54.27349
2021-03-07 11:34:01+00:00,230.0,8.81,229.0,9.91,12.41,47.59359,-54.27349
2021-03-07 11:44:01+00:00,240.0,7.69,244.0,9.58,12.41,47.59359,-54.27349
2021-03-07 11:54:01+00:00,242.0,8.38,249.0,10.33,12.41,47.59359,-54.27349
2021-03-07 12:04:01+00:00,241.0,8.29,247.0,9.48,12.41,47.59359,-54.27349
2021-03-07 12:14:01+00:00,236.0,8.34,241.0,9.64,12.89,47.59359,-54.27349
2021-03-07 12:24:01+00:00,231.0,8.85,229.0,10.44,12.89,47.59359,-54.27349
2021-03-07 12:34:01+00:00,228.0,8.62,229.0,10.4,12.89,47.59359,-54.27349
2021-03-07 12:44:01+00:00,229.0,8.58,225.0,9.99,12.89,47.59359,-54.27349
2021-03-07 12:54:01+00:00,232.0,8.13,230.0,9.72,12.89,47.59359,-54.27349
2021-03-07 13:04:01+00:00,235.0,9.0,234.0,10.06,12.89,47.59359,-54.27349
2021-03-07 13:14:01+00:00,235.0,8.64,236.0,10.48,13.76,47.59359,-54.27349
2021-03-07 13:24:01+00:00,223.0,8.18,224.0,9.59,13.76,47.59359,-54.27349
2021-03-07 13:34:01+00:00,227.0,8.0,225.0,9.4,13.76,47.59359,-54.27349
2021-03-07 13:44:01+00:00,233.0,8.38,237.0,9.83,13.76,47.59359,-54.27349
2021-03-07 13:54:01+00:00,231.0,9.21,232.0,10.45,13.76,47.59359,-54.27349
2021-03-07 14:04:01+00:00,232.0,9.15,232.0,10.05,13.76,47.59359,-54.27349
2021-03-07 14:14:01+00:00,231.0,8.98,227.0,11.27,13.84,47.59359,-54.27349
2021-03-07 14:24:01+00:00,229.0,9.39,220.0,12.16,13.84,47.59359,-54.27349
2021-03-07 14:34:01+00:00,229.0,9.28,226.0,10.92,13.84,47.59359,-54.27349
2021-03-07 14:44:01+00:00,227.0,8.39,232.0,9.9,13.84,47.59359,-54.27349
2021-03-07 14:54:01+00:00,222.0,8.28,223.0,9.97,13.84,47.59359,-54.27349
2021-03-07 15:04:01+00:00,227.0,8.72,232.0,10.26,13.84,47.59359,-54.27349
2021-03-07 15:14:01+00:00,224.0,9.67,222.0,11.12,13.76,47.59359,-54.27349
2021-03-07 15:24:01+00:00,230.0,8.97,240.0,13.25,13.76,47.59359,-54.27349
2021-03-07 15:34:01+00:00,230.0,8.96,235.0,9.98,13.76,47.59359,-54.27349
2021-03-07 15:44:01+00:00,225.0,8.78,236.0,11.54,13.76,47.59359,-54.27349
2021-03-07 15:54:01+00:00,225.0,9.61,234.0,12.53,13.76,47.59359,-54.27349
2021-03-07 16:04:01+00:00,221.0,9.18,215.0,10.76,13.76,47.59359,-54.27349
2021-03-07 16:14:01+00:00,224.0,7.64,221.0,9.19,13.68,47.59359,-54.27349
2021-03-07 16:24:01+00:00,225.0,8.81,224.0,10.29,13.68,47.59359,-54.27349
2021-03-07 16:34:01+00:00,223.0,9.29,228.0,10.57,13.68,47.59359,-54.27349
2021-03-07 16:44:01+00:00,220.0,10.77,239.0,13.77,13.68,47.59359,-54.27349
2021-03-07 16:54:01+00:00,229.0,9.58,225.0,11.49,13.68,47.59359,-54.27349
2021-03-07 17:04:01+00:00,225.0,10.19,234.0,13.84,13.68,47.59359,-54.27349
2021-03-07 17:14:01+00:00,226.0,9.54,228.0,10.8,13.92,47.59359,-54.27349
2021-03-07 17:24:01+00:00,224.0,9.85,242.0,13.22,13.92,47.59359,-54.27349
2021-03-07 17:34:01+00:00,223.0,9.98,225.0,12.7,13.92,47.59359,-54.27349
2021-03-07 17:44:01+00:00,241.0,14.09,246.0,16.38,13.92,47.59359,-54.27349
2021-03-07 17:54:01+00:00,232.0,12.45,244.0,15.66,13.92,47.59359,-54.27349
2021-03-07 18:04:01+00:00,238.0,8.58,241.0,13.08,13.92,47.59359,-54.27349
2021-03-07 18:14:01+00:00,225.0,9.41,237.0,13.28,13.84,47.59359,-54.27349
2021-03-07 18:24:01+00:00,263.0,11.84,265.0,13.3,13.84,47.59359,-54.27349
2021-03-07 18:34:01+00:00,255.0,7.11,256.0,9.29,13.84,47.59359,-54.27349
2021-03-07 18:44:01+00:00,249.0,7.37,261.0,9.22,13.84,47.59359,-54.27349
2021-03-07 18:54:01+00:00,248.0,7.43,251.0,8.98,13.84,47.59359,-54.27349
2021-03-07 19:04:01+00:00,249.0,8.43,250.0,9.4,13.84,47.59359,-54.27349
2021-03-07 19:14:01+00:00,252.0,8.71,256.0,10.87,14.24,47.59359,-54.27349
2021-03-07 19:24:01+00:00,255.0,7.42,256.0,9.16,14.24,47.59359,-54.27349
2021-03-07 19:34:01+00:00,251.0,8.36,252.0,9.36,14.24,47.59359,-54.27349
2021-03-07 19:44:01+00:00,247.0,8.48,243.0,9.5,14.24,47.59359,-54.27349
2021-03-07 19:54:01+00:00,247.0,7.94,248.0,9.54,14.24,47.59359,-54.27349
2021-03-07 20:04:01+00:00,253.0,7.22,261.0,11.27,14.24,47.59359,-54.27349
2021-03-07 20:14:01+00:00,250.0,7.81,253.0,9.3,13.76,47.59359,-54.27349
2021-03-07 20:24:01+00:00,243.0,8.47,243.0,9.86,13.76,47.59359,-54.27349
2021-03-07 20:34:01+00:00,242.0,7.61,246.0,8.77,13.76,47.59359,-54.27349
2021-03-07 20:44:01+00:00,245.0,8.21,255.0,9.08,13.76,47.59359,-54.27349
2021-03-07 20:54:01+00:00,242.0,7.58,248.0,9.41,13.76,47.59359,-54.27349
2021-03-07 21:04:01+00:00,236.0,9.04,234.0,10.44,13.76,47.59359,-54.27349
2021-03-07 21:14:01+00:00,241.0,7.1,241.0,8.03,13.44,47.59359,-54.27349
2021-03-07 21:24:01+00:00,238.0,8.02,240.0,9.05,13.44,47.59359,-54.27349
2021-03-07 21:34:01+00:00,236.0,8.48,237.0,9.06,13.44,47.59359,-54.27349
2021-03-07 21:44:01+00:00,229.0,7.0,228.0,7.99,13.44,47.59359,-54.27349
2021-03-07 21:54:01+00:00,229.0,8.43,230.0,9.45,13.44,47.59359,-54.27349
2021-03-07 22:04:01+00:00,240.0,8.16,240.0,9.31,13.44,47.59359,-54.27349
2021-03-07 22:14:01+00:00,242.0,8.71,242.0,10.01,12.73,47.59359,-54.27349
2021-03-07 22:24:01+00:00,241.0,8.05,236.0,10.02,12.73,47.59359,-54.27349
2021-03-07 22:34:01+00:00,245.0,7.98,240.0,9.56,12.73,47.59359,-54.27349
2021-03-07 22:44:01+00:00,249.0,7.73,248.0,9.22,12.73,47.59359,-54.27349
2021-03-07 22:54:01+00:00,264.0,8.1,257.0,9.04,12.73,47.59359,-54.27349
2021-03-07 23:04:01+00:00,261.0,7.51,263.0,8.87,12.73,47.59359,-54.27349
2021-03-07 23:14:01+00:00,264.0,8.14,263.0,8.98,12.57,47.59359,-54.27349
2021-03-07 23:24:01+00:00,260.0,8.27,264.0,8.98,12.57,47.59359,-54.27349
2021-03-07 23:34:01+00:00,258.0,8.18,259.0,9.09,12.57,47.59359,-54.27349
2021-03-07 23:44:01+00:00,255.0,6.44,257.0,8.57,12.57,47.59359,-54.27349
2021-03-07 23:54:01+00:00,266.0,6.35,262.0,7.39,12.57,47.59359,-54.27349
